Vero Beach, FL

6:53 PM EST on February 19, 2017 (GMT -0500)
Vero Beach Municipal

Weather History for KVRB - October, 2011

Change the Weather History Date:

Monday, October 3, 2011

  Actual Average Record
Temperature  
Mean Temperature 75 °F 79 °F  
Max Temperature 86 °F 86 °F 94 °F (1985)
Min Temperature 63 °F 72 °F 57 °F (1984)
Degree Days  
Heating Degree Days 0 0  
Month to date heating degree days 0 0  
Since 1 July heating degree days 0 0  
Cooling Degree Days 10 14  
Month to date cooling degree days 31 42  
Year to date cooling degree days 3067 2809  
Growing Degree Days 24 (Base 50)    
Moisture  
Dew Point 62 °F    
Average Humidity 68    
Maximum Humidity 87    
Minimum Humidity 48    
Precipitation  
Precipitation 0.00 in 0.20 in 6.09 in (2000)
Month to date precipitation 0.00 0.62  
Year to date precipitation 36.58 42.11  
Sea Level Pressure  
Sea Level Pressure 30.06 in    
Wind  
Wind Speed 4 mph (NE)    
Max Wind Speed 12 mph    
Max Gust Speed 15 mph    
Visibility 10 miles    
Events      
T = Trace of Precipitation, MM = Missing Value Source: NWS Daily Summary

Daily Weather History Graph

Daily Weather History Graph

Search for Another Location

Airport or City:

Trip Planner

Search our weather history database for the weather conditions in past years. The results will help you decide how hot, cold, wet, or windy it might be!

Date:

Astronomy

Oct. 03, 2011 Rise Set
Actual Time 7:15 AM EDT 7:05 PM EDT
Civil Twilight 6:51 AM EDT 7:29 PM EDT
Nautical Twilight 6:24 AM EDT 7:56 PM EDT
Astronomical Twilight 5:57 AM EDT 8:23 PM EDT
Moon 1:45 PM EDT (10/3) No Moon Set
Length of Visible Light 12h 37m
Length of Day
11h 50m
Waxing Crescent, 45% of the Moon is Illuminated
Oct 3
Waxing Crescent
Oct 3
First Quarter
Oct 11
Full
Oct 19
Last Quarter
Oct 26
New

Hourly Weather History & Observations

Time (EDT) Temp. Heat Index Dew Point Humidity Pressure Visibility Wind Dir Wind Speed Gust Speed Precip Events Conditions
12:53 AM 64.9 °F - 61.0 °F 87% 30.04 in 10.0 mi Calm Calm - N/A   Scattered Clouds
1:53 AM 64.9 °F - 61.0 °F 87% 30.04 in 10.0 mi West 3.5 mph - N/A   Mostly Cloudy
2:53 AM 64.0 °F - 60.1 °F 87% 30.03 in 10.0 mi NW 4.6 mph - N/A   Partly Cloudy
3:53 AM 64.9 °F - 60.1 °F 84% 30.02 in 10.0 mi Calm Calm - N/A   Partly Cloudy
4:53 AM 64.0 °F - 60.1 °F 87% 30.02 in 10.0 mi Calm Calm - N/A   Scattered Clouds
5:53 AM 64.0 °F - 60.1 °F 87% 30.04 in 10.0 mi Calm Calm - N/A   Partly Cloudy
6:53 AM 64.9 °F - 61.0 °F 87% 30.06 in 10.0 mi NW 3.5 mph - N/A   Mostly Cloudy
7:53 AM 66.0 °F - 61.0 °F 84% 30.06 in 10.0 mi Calm Calm - N/A   Partly Cloudy
8:53 AM 71.1 °F - 64.9 °F 81% 30.08 in 10.0 mi NW 3.5 mph - N/A   Clear
9:53 AM 80.6 °F 82.7 °F 66.2 °F 61% 30.09 in 10.0 mi Calm Calm - N/A   Clear
10:53 AM 81.0 °F 82.2 °F 63.0 °F 54% 30.10 in 10.0 mi East 5.8 mph - N/A   Scattered Clouds
11:53 AM 81.0 °F 81.9 °F 62.1 °F 52% 30.10 in 10.0 mi NE 5.8 mph - N/A   Mostly Cloudy
12:53 PM 84.0 °F 84.9 °F 63.0 °F 49% 30.09 in 10.0 mi NNE 5.8 mph - N/A   Partly Cloudy
1:53 PM 84.2 °F 85.0 °F 62.6 °F 48% 30.06 in 10.0 mi NE 9.2 mph - N/A   Partly Cloudy
2:53 PM 84.0 °F 84.9 °F 63.0 °F 49% 30.05 in 10.0 mi NE 9.2 mph - N/A   Scattered Clouds
3:53 PM 82.9 °F 84.4 °F 64.0 °F 53% 30.04 in 10.0 mi NE 8.1 mph - N/A   Scattered Clouds
4:53 PM 82.9 °F 84.4 °F 64.0 °F 53% 30.04 in 10.0 mi ENE 8.1 mph - N/A   Scattered Clouds
5:53 PM 82.4 °F 83.4 °F 62.6 °F 51% 30.05 in 10.0 mi ENE 6.9 mph - N/A   Clear
6:53 PM 78.1 °F - 64.0 °F 62% 30.06 in 10.0 mi ENE 4.6 mph - N/A   Clear
7:53 PM 75.0 °F - 64.0 °F 69% 30.06 in 10.0 mi ENE 4.6 mph - N/A   Clear
9:53 PM 75.0 °F - 64.0 °F 69% 30.09 in 10.0 mi East 4.6 mph - N/A   Clear
10:53 PM 73.9 °F - 63.0 °F 68% 30.11 in 10.0 mi ENE 3.5 mph - N/A   Clear